CZ-6A DEB, 60968

Orbit data source: Space-Track

CZ-6A DEB, 60968 is space debris in LEO originally from a launch on Tue, 06 Aug 2024 UTC launched from the Taiyaun Space Center, China (TSC). Debris objects in space refer to the collection of defunct objects orbiting the Earth. Examples of debris include non-operational satellites, rocket bodies, and fragments generated from explosions, collisions, or faulty payload assembly.

Loading next visibility...
Identifier
60968, 2024-140LT
Orbit
LEO
Country
Flag of CNCN / PRC
Related business
Manufacturer
SAST
Mission
Spacecraft
Bus & Motor
Unknown
Mass
Unknown
Launch date (UTC)
2024-08-06 (2 years ago)
Launch vehicle
Unknown
Launch site
Taiyaun Space Center, China (TSC)
Object type
Payload
Rocket body
Debris
Shape & HBR
Unknown shape, 0.1 m
Radar Cross Section
Medium (>0.1 m² and <1 m²)

Expand to show TLE details & history
Last TLE update: 17 hours ago

TLE from 17 hours ago
0 CZ-6A DEB
1 60968U 24140LT  26171.27710723  .00000332  00000-0  15254-3 0  9994
2 60968  89.0064 274.9777 0051928 177.5233 182.6223 14.18275103 95486
Epoch: 2026-06-20T06:39Z
TLE epoch observation values (Epoch: 2026-06-20T06:39:02.064Z)
Latitude
-0.00009°
Longitude
-93.27494°
Altitude
871.649 km
Speed
7.397 km/s
True Right ascension
18h 19m 54s
True Declination
0° 00' 00"
Sunlit
Object was in full shadow at epoch
Visualization orbit readout
Latitude
Unknown
Longitude
Unknown
Altitude
Unknown
Speed
Unknown
Apparent Right ascension
Unknown
Apparent Declination
Unknown
Sunlit
N/A
Visualization observer readout
Local Sidereal Time
10:18:38
Azimuth
Unknown
Elevation
Unknown
Doppler factor
Unknown
Orbital elements
Apogee altitude
865.566 km
Perigee altitude
790.725 km
Semi-major axis
7,206.283 km
Eccentricity
0.00519
Inclination
89.0064°
RAAN
274.9777°
Arg. of periapsis
177.5233°
True anomaly
182.59525°
Mean anomaly
182.6223°
Eccentric anomaly
182.60876°
Mean motion
3.54794 °/min
Orbital period
101.47 mins
BSTAR
0.00015254
Loading maneuver chart data...
Computing Atmospheric mass density...
Loading historical data...
Loading historical data...
Loading historical data...
Loading historical data...
Loading historical data...
Loading historical data...
Loading historical data...

Documentation

Showing up to 5 results
|